Погода в Муцалауле

Россия / Республика Дагестан     43°16′08″N   46°43′52″E
темп.,
°C
ветер,
м/с
пор.,
м/с
влажн.,
%
обл.,
%
осадки,
мм/ч
давл.,
гПа
погр.,
м
30 ноября, вт
вт3000:00+11вюв346896 0.0 100947
03:00+12вюв35575 0.0 100658
06:00+11сз01585 0.0 100410
09:00+14ссз114355 0.0 100323
12:00+14з111655100 0.0 1008785
15:00+14з2465100 0.0 1008207
18:00+12ююв33730 0.0 100724
21:00+12вюв612710 0.0 1001275
1 декабря, ср
ср100:00+11в58680 0.0 994116
03:00+13ю22540 0.0 99111
06:00+10з11188036 0.0 999723
09:00+12зюз47624 0.0 1001511
12:00+14ссз565372 0.0 1003887
15:00+8сз6865100 2.1 1008899
18:00+6з2483100 2.9 1011540
21:00+4юз5581100 5.8 1014435
2 декабря, чт
чт200:00+5ююз3574100 1.1 1013265
03:00+6св1274100 1.1 101362
06:00+5юв1174100 0.0 101520
09:00+7с2363100 0.0 1018159
12:00+7зсз335649 0.0 1020716
15:00+8ссз22555 0.0 1021679
18:00+6в11652 0.0 102311
21:00+5юв22690 0.0 102313
3 декабря, пт
пт300:00+4вюв23694 0.0 102331
03:00+4вюв23730 0.0 102253
06:00+3вюв11660 0.0 102214
09:00+6в12453 0.0 102299
12:00+10в123370 0.0 1020448
15:00+11всв113862 0.0 1018104
18:00+7з1160100 0.0 101911
21:00+6з225556 0.0 101915
4 декабря, сб
сб400:00+5з11595 0.0 101810
03:00+4з22615 0.0 101910
06:00+4з226360 0.0 101911
09:00+6зсз1257100 0.0 101961
12:00+9сз224690 0.0 1018299
15:00+10ссз11450 0.0 1017262
18:00+6ю11580 0.0 101610
21:00+6вюв34595 0.0 101448